DW9918 Weather Reports


Display with metric or nautical units.
time (UTC)temp
F
wind
direction
speed
MPH
gust
MPH
rain 1hr
in
rain 24hr
in
rain mn
in
humidity
%
barometer
mb
20260505184512 66 151 3.0 9.0 0.00 0.22 0.22 77 1011.7
20260505183012 66 164 3.0 8.0 0.00 0.22 0.22 77 1011.8
20260505181508 67 116 3.0 12.0 0.00 0.22 0.22 76 1011.6
20260505180015 67 126 5.0 10.0 0.00 0.22 0.22 75 1011.6
20260505174519 68 117 6.0 11.0 0.00 0.22 0.22 74 1011.6
20260505173016 70 99 5.0 8.0 0.00 0.22 0.22 73 1011.7
20260505171518 70 169 2.0 8.0 0.00 0.22 0.22 71 1011.6
20260505170015 71 136 4.0 11.0 0.00 0.22 0.22 68 1011.4
20260505164514 72 205 4.0 9.0 0.00 0.22 0.22 67 1011.4
20260505163018 72 172 2.0 8.0 0.00 0.22 0.22 68 1011.2
20260505161509 72 119 4.0 9.0 0.00 0.22 0.22 69 1011.4
20260505153018 72 139 4.0 9.0 0.00 0.22 0.22 69 1011.7
20260505151515 71 214 4.0 9.0 0.00 0.22 0.22 71 1011.8
20260505124510 66 116 14.0 17.0 0.00 0.22 0.22 78 1012.9
20260505123023 66 130 11.0 17.0 0.00 0.22 0.22 79 1013.1
20260505121532 66 105 12.0 16.0 0.00 0.22 0.22 78 1013.2
20260505120018 65 96 10.0 17.0 0.00 0.22 0.22 79 1013.2
20260505114516 66 107 10.0 16.0 0.00 0.22 0.22 74 1013.3
20260505113013 67 110 9.0 13.0 0.00 0.22 0.22 76 1013.5
20260505111508 64 111 7.0 10.0 0.00 0.22 0.22 78 1013.7
20260505101520 62 148 6.0 11.0 0.00 0.22 0.22 84 1014.0
20260505100018 60 108 6.0 10.0 0.00 0.22 0.22 91 1014.0
20260505094513 59 101 7.0 9.0 0.00 0.22 0.22 94 1014.1
20260505093027 58 98 6.0 12.0 0.02 0.22 0.22 94 1014.3
20260505091532 58 100 12.0 15.0 0.02 0.22 0.22 94 1014.3
20260505090037 58 98 9.0 12.0 0.01 0.21 0.21 94 1014.3
20260505084522 57 89 5.0 7.0 0.01 0.21 0.21 94 1014.6
20260505083015 57 122 5.0 10.0 0.01 0.19 0.19 94 1014.6
20260505081515 57 107 6.0 9.0 0.07 0.19 0.19 94 1014.4
20260505080041 56 102 6.0 8.0 0.14 0.19 0.19 93 1014.3
20260505074506 56 103 3.0 7.0 0.19 0.19 0.19 93 1014.3
20260505073004 56 89 3.0 4.0 0.18 0.18 0.18 92 1014.5
20260505071504 57 155 0.0 2.0 0.12 0.12 0.12 86 1014.7
20260505070020 58 153 0.0 5.0 0.05 0.05 0.05 83 1014.7
20260505064521 59 155 2.0 6.0 0.00 0.00 0.00 79 1014.5
20260505063015 59 107 3.0 7.0 0.00 0.00 0.00 80 1014.3
20260505061509 59 103 3.0 4.0 0.00 0.00 0.00 80 1014.0
20260505060008 58 90 1.0 3.0 0.00 0.00 0.00 81 1014.0
20260505054506 58 153 1.0 3.0 0.00 0.00 0.00 81 1014.0
20260505053026 57 162 0.0 1.0 0.00 0.00 0.00 81 1014.1
20260505051520 58 199 0.0 2.0 0.00 0.00 0.00 80 1014.2
20260505041509 60 178 0.0 5.0 0.00 0.00 0.00 69 1013.8
20260505040030 59 124 1.0 2.0 0.00 0.00 0.00 69 1013.8
20260505034526 59 130 0.0 4.0 0.00 0.00 0.00 70 1013.8
20260505033031 58 95 1.0 2.0 0.00 0.00 0.00 74 1013.9
20260505031517 59 113 2.0 3.0 0.00 0.00 0.00 74 1014.1
20260505030020 59 220 0.0 1.0 0.00 0.00 0.00 71 1014.0
20260505024513 59 237 0.0 2.0 0.00 0.00 0.00 71 1014.1
20260505023036 59 252 1.0 2.0 0.00 0.00 0.00 71 1014.2
20260505021527 60 216 0.0 3.0 0.00 0.00 0.00 67 1014.3
20260505020022 60 243 2.0 4.0 0.00 0.00 0.00 67 1014.4
20260505014532 60 233 2.0 4.0 0.00 0.00 0.00 68 1014.5
20260505013018 60 213 1.0 5.0 0.00 0.00 0.00 68 1014.6
20260505011514 60 203 0.0 3.0 0.00 0.00 0.00 69 1014.7
20260505010011 61 140 1.0 3.0 0.00 0.00 0.00 68 1014.8
20260505004513 61 181 2.0 7.0 0.00 0.00 0.00 67 1015.0
20260505003004 62 230 3.0 7.0 0.00 0.00 0.00 66 1015.1
20260505001504 62 221 2.0 5.0 0.00 0.00 0.00 65 1015.3
20260505000022 61 178 1.0 4.0 0.00 0.00 0.00 68 1015.5
20260504234518 60 239 2.0 5.0 0.00 0.00 0.00 69 1015.8
20260504233014 60 224 2.0 4.0 0.00 0.00 0.00 68 1015.9
20260504231511 60 210 0.0 3.0 0.00 0.00 0.00 67 1016.0
20260504230008 60 214 0.0 2.0 0.00 0.00 0.00 66 1016.2
20260504224506 61 167 0.0 2.0 0.00 0.00 0.00 65 1016.2
20260504223020 62 184 1.0 4.0 0.00 0.00 0.00 64 1016.3
20260504221523 63 245 2.0 6.0 0.00 0.00 0.00 63 1016.3
20260504220014 63 231 3.0 9.0 0.00 0.00 0.00 63 1016.4
20260504214514 63 229 6.0 10.0 0.00 0.00 0.00 66 1016.5
20260504213014 63 245 4.0 8.0 0.00 0.00 0.00 70 1016.5
20260504211513 62 233 2.0 6.0 0.00 0.00 0.00 76 1016.5
20260504210036 62 227 2.0 3.0 0.00 0.00 0.00 78 1016.5
20260504204532 62 247 0.0 0.0 0.00 0.00 0.00 78 1016.6
20260504203025 62 151 0.0 0.0 0.00 0.00 0.00 76 1016.4
20260504201514 63 150 0.0 0.0 0.00 0.00 0.00 75 1016.2
20260504200014 63 153 0.0 0.0 0.00 0.00 0.00 74 1016.1
20260504194528 63 109 0.0 0.0 0.00 0.00 0.00 73 1016.1
20260504193028 63 108 0.0 1.0 0.00 0.00 0.00 73 1016.1
20260504191525 64 127 0.0 2.0 0.00 0.00 0.00 71 1016.0
20260504190022 64 115 1.0 2.0 0.00 0.00 0.00 72 1015.8